TimeEDT,TemperatureF,Dew PointF,Humidity,Sea Level PressureIn,VisibilityMPH,Wind Direction,Wind SpeedMPH,Gust SpeedMPH,PrecipitationIn,Events,Conditions,WindDirDegrees,DateUTC
12:51 AM,57.9,57.0,97,29.78,5.0,South,4.6,-,0.00,,Light Drizzle,170,2011-10-13 04:51:00
1:51 AM,57.9,55.9,93,29.77,8.0,SSE,3.5,-,0.00,,Overcast,150,2011-10-13 05:51:00
2:05 AM,57.2,55.4,94,29.77,7.0,SSE,3.5,-,N/A,,Overcast,150,2011-10-13 06:05:00
2:51 AM,57.9,55.9,93,29.76,6.0,ESE,4.6,-,N/A,,Overcast,120,2011-10-13 06:51:00
3:51 AM,57.9,55.9,93,29.75,6.0,SSE,5.8,-,N/A,,Overcast,150,2011-10-13 07:51:00
4:27 AM,57.2,55.4,94,29.74,6.0,SSE,4.6,-,N/A,,Overcast,150,2011-10-13 08:27:00
4:51 AM,57.9,57.0,97,29.73,5.0,Calm,Calm,-,N/A,,Overcast,0,2011-10-13 08:51:00
5:17 AM,57.2,55.4,94,29.74,5.0,SE,4.6,-,N/A,,Overcast,140,2011-10-13 09:17:00
5:51 AM,57.9,57.0,97,29.73,3.0,SSE,3.5,-,N/A,,Overcast,150,2011-10-13 09:51:00
6:51 AM,57.9,57.0,97,29.72,3.0,SE,3.5,-,N/A,,Overcast,140,2011-10-13 10:51:00
7:51 AM,57.9,55.9,93,29.72,4.0,South,3.5,-,N/A,,Overcast,170,2011-10-13 11:51:00
7:59 AM,57.2,55.4,94,29.72,4.0,Calm,Calm,-,N/A,,Overcast,0,2011-10-13 11:59:00
8:17 AM,57.2,57.2,100,29.72,3.0,South,3.5,-,N/A,,Overcast,180,2011-10-13 12:17:00
8:51 AM,57.9,57.0,97,29.72,2.5,Calm,Calm,-,N/A,,Overcast,0,2011-10-13 12:51:00
9:20 AM,57.2,57.2,100,29.72,2.5,Calm,Calm,-,N/A,,Overcast,0,2011-10-13 13:20:00
9:51 AM,57.9,57.0,97,29.71,2.5,South,3.5,-,N/A,,Overcast,190,2011-10-13 13:51:00
10:17 AM,59.0,57.2,94,29.70,3.0,SSE,4.6,-,N/A,,Overcast,160,2011-10-13 14:17:00
10:35 AM,60.8,57.2,88,29.70,5.0,Calm,Calm,-,N/A,,Overcast,0,2011-10-13 14:35:00
10:51 AM,60.1,57.0,90,29.69,6.0,Calm,Calm,-,N/A,,Overcast,0,2011-10-13 14:51:00
11:31 AM,60.8,55.4,82,29.69,7.0,SSE,3.5,-,N/A,,Overcast,150,2011-10-13 15:31:00
11:51 AM,61.0,55.9,83,29.67,7.0,SSE,4.6,-,N/A,,Overcast,160,2011-10-13 15:51:00
12:09 PM,62.6,55.4,77,29.67,10.0,Calm,Calm,-,N/A,,Overcast,0,2011-10-13 16:09:00
12:51 PM,63.0,57.0,81,29.65,10.0,East,5.8,-,N/A,,Overcast,100,2011-10-13 16:51:00
1:11 PM,62.6,57.2,82,29.65,10.0,East,5.8,-,N/A,,Overcast,100,2011-10-13 17:11:00
1:40 PM,62.6,57.2,82,29.64,10.0,ESE,6.9,-,N/A,,Overcast,120,2011-10-13 17:40:00
1:51 PM,63.0,57.9,84,29.63,10.0,SE,8.1,-,N/A,,Overcast,140,2011-10-13 17:51:00
2:51 PM,64.0,57.9,80,29.60,10.0,SSE,4.6,-,N/A,,Overcast,160,2011-10-13 18:51:00
3:51 PM,64.9,59.0,81,29.55,10.0,East,4.6,-,N/A,,Overcast,80,2011-10-13 19:51:00
4:40 PM,66.2,59.0,78,29.55,10.0,East,4.6,-,N/A,,Mostly Cloudy,100,2011-10-13 20:40:00
4:51 PM,64.9,59.0,81,29.53,10.0,East,4.6,-,N/A,,Mostly Cloudy,100,2011-10-13 20:51:00
5:24 PM,64.4,59.0,83,29.54,10.0,ENE,3.5,-,N/A,,Overcast,60,2011-10-13 21:24:00
5:35 PM,64.4,59.0,83,29.53,10.0,ENE,4.6,-,N/A,,Overcast,70,2011-10-13 21:35:00
5:51 PM,64.9,59.0,81,29.52,10.0,Calm,Calm,-,0.00,Rain,Light Rain,0,2011-10-13 21:51:00
6:51 PM,63.0,60.1,90,29.50,7.0,Calm,Calm,-,0.02,Rain,Light Rain,0,2011-10-13 22:51:00
7:38 PM,62.6,60.8,94,29.50,8.0,East,3.5,-,0.04,Rain,Light Rain,100,2011-10-13 23:38:00
7:51 PM,62.1,60.1,93,29.49,7.0,East,3.5,-,0.04,Rain,Light Rain,90,2011-10-13 23:51:00
8:19 PM,60.8,60.8,100,29.49,6.0,Calm,Calm,-,0.03,Rain,Light Rain,0,2011-10-14 00:19:00
8:27 PM,60.8,60.8,100,29.49,6.0,East,4.6,-,0.04,Rain-Thunderstorm,Light Thunderstorms and Rain,100,2011-10-14 00:27:00
8:51 PM,62.1,61.0,96,29.46,4.0,East,8.1,-,0.13,Rain-Thunderstorm,Thunderstorms and Rain,80,2011-10-14 00:51:00
9:38 PM,60.8,60.8,100,29.46,10.0,East,8.1,-,0.07,,Mostly Cloudy,100,2011-10-14 01:38:00
9:51 PM,60.1,59.0,96,29.46,10.0,SE,6.9,-,0.07,,Mostly Cloudy,140,2011-10-14 01:51:00
10:51 PM,59.0,57.9,96,29.44,10.0,South,5.8,-,N/A,,Overcast,180,2011-10-14 02:51:00
11:05 PM,59.0,57.2,94,29.44,10.0,South,5.8,-,N/A,,Overcast,180,2011-10-14 03:05:00
11:20 PM,60.8,59.0,94,29.44,10.0,South,4.6,-,N/A,,Mostly Cloudy,170,2011-10-14 03:20:00
11:51 PM,60.1,59.0,96,29.44,10.0,South,8.1,-,N/A,,Mostly Cloudy,180,2011-10-14 03:51:00